Showing default

NUSAT-33 (ALBANIA-2), 55047

Orbit data source: Space-Track

NUSAT-33 (ALBANIA-2), 55047 is a payload satellite owned by URUGUS S.A. (AR) in SSO that was launched on Tue, 03 Jan 2023 UTC via an FALCON 9 launch vehicle from the Air Force Eastern Test Range (AFETR). Payload-class satellites include a variety of spacecraft equipped with specific instruments for various scientific and technological missions. These include communications satellites like Starlink; space stations such as the ISS; scientific satellites like the Hubble; Earth observation satellites from companies like Planet Labs, Umbra, and HawkEye 360; GPS; miniature CubeSats for education and research; and military/defense satellites.

Loading next visibility...
Identifier
55047, 2023-001AQ
Orbit
SSO
Country
Flag of UnknownUnknown / ARGN
Related business
Manufacturer
URUGUS S.A.
Mission
Operational Commercial Imaging
Bus & Motor
NEWSAT V, Unknown motor
Mass
41.5 kg wet, 38.5 kg dry
Launch date (UTC)
2023-01-03 (3 years ago)
Launch vehicle
FALCON 9
Launch site
Air Force Eastern Test Range (AFETR)
Object type
Payload
Rocket body
Debris
Shape & HBR
Box, 1.0 m
Radar Cross Section
0.542 m², Medium (>0.1 m² and < 1m²)

Expand to show TLE details & history
Last TLE update: 7 hours ago

TLE from 7 hours ago
0 NUSAT-33 (ALBANIA-2)
1 55047U 23001AQ  26035.51795587  .00013692  00000-0  51218-3 0  9991
2 55047  97.3237  99.0556 0008075 151.9469 208.2207 15.27408142172064
Epoch: 2026-02-04T12:25Z
TLE epoch observation values (Epoch: 2026-02-04T12:25:51.387Z)
Latitude
-0.00001°
Longitude
137.9081°
Altitude
491.551 km
Speed
7.616 km/s
True Right ascension
06h 36m 13s
True Declination
0° 00' 00"
Sunlit
Object was in full shadow at epoch
Visualization orbit readout
Latitude
Unknown
Longitude
Unknown
Altitude
Unknown
Speed
Unknown
Apparent Right ascension
Unknown
Apparent Declination
Unknown
Sunlit
N/A
Visualization observer readout
Local Sidereal Time
21:37:54
Azimuth
Unknown
Elevation
Unknown
Doppler factor
Unknown
Orbital elements
Apogee altitude
486.055 km
Perigee altitude
474.978 km
Semi-major axis
6,858.653 km
Eccentricity
0.00081
Inclination
97.3237°
RAAN
99.0556°
Arg. of periapsis
151.9469°
True anomaly
208.17698°
Mean anomaly
208.2207°
Eccentric anomaly
208.19884°
Mean motion
3.82107 °/min
Orbital period
94.21 mins
BSTAR
0.00051218
Loading maneuver chart data...
Computing Atmospheric mass density...
Loading historical data...
Loading historical data...
Loading historical data...
Loading historical data...
Loading historical data...
Loading historical data...
Loading historical data...

Documentation

Showing up to 5 results
|